Regional Weather Roundup
Issued by NWS Kansas City/Pleasant Hill, MO

Home | Current Version | Previous Version | Graphics & Text | Print | Product List | Glossary Off
Versions: 1 2 3 4 5 6 7 8 9 10 11 12 13 14 15 16 17 18 19 20 21 22 23 24 25 26 27 28 29 30 31 32 33 34 35 36 37 38 39 40 41 42 43 44 45 46 47 48 49 50

000
ASUS43 KEAX 220810
RWREAX

WEATHER ROUNDUP FOR EASTERN KANSAS AND NORTHWEST MISSOURI
NATIONAL WEATHER SERVICE KANSAS CITY/PLEASANT HILL MO
200 AM CST MON DEC 22 2014

KSZ040-057-103>105-MOZ028-029-037-043-220900-
...KANSAS CITY METROPOLITAN AREA...

CITY           SKY/WX    TMP DP  RH WIND       PRES   REMARKS
K.C. INTL      CLOUDY    42  38  85 S15       29.68F WCI  34
K.C. DOWNTOWN  CLOUDY    44  37  76 S10       29.69F
LEES SUMMIT    CLOUDY    42  37  82 S9G16     29.70F
OLATHE - IXD   CLOUDY    42  39  89 SE10      29.68F
OLATHE - OJC   CLOUDY    42  38  85 SE12      29.68F
LAWRENCE       CLOUDY    42  39  89 SE8       29.68F

$$

MOZ001>008-011>017-020>025-030>033-038>040-044>046-053-054-220900-
...NORTHERN AND CENTRAL MISSOURI...

CITY           SKY/WX    TMP DP  RH WIND       PRES   REMARKS
ST. JOSEPH     CLOUDY    43  38  82 S10       29.68F
MOSBY            N/A     43  37  81 SE9       29.70F
WARRENSBURG    CLOUDY    41  36  81 SE12      29.73F WCI  34
WHITEMAN AFB   CLOUDY    43  36  78 S13       29.73F
CLINTON        CLOUDY    45  37  76 SE10      29.75F
SEDALIA        CLOUDY    43  36  76 SE12      29.76F
WARSAW         NOT AVBL
MARSHALL       CLOUDY    43  39  87 SE8       29.77F
CHILLICOTHE      N/A     42  37  82 SE8       29.75F
KIRKSVILLE     CLOUDY    39  36  89 SE13      29.79F WCI  31

$$

MOZ041-047>049-056>058-063>065-088>090-097-220900-
...EASTERN AND SOUTHERN MISSOURI...

CITY           SKY/WX    TMP DP  RH WIND       PRES   REMARKS
ST. LOUIS INTL CLOUDY    43  31  62 SE9       29.90S
SPIRIT OF STL  CLOUDY    42  31  64 E5        29.88F
COLUMBIA       CLOUDY    41  34  76 SE10      29.80F WCI  35
JEFFERSON CITY CLOUDY    42  34  73 SE7       29.82F
MEXICO         CLOUDY    41  37  87 SE9       29.83F
HANNIBAL       CLOUDY    43  32  65 SE7       29.84F
ROLLA          CLOUDY    41  32  70 SE10      29.79F WCI  35
LEBANON        CLOUDY    41  34  75 SE10      29.77F WCI  35
OSAGE BEACH    CLOUDY    43  34  70 SE9       29.78F
SPRINGFIELD    CLOUDY    43  36  76 SE16      29.72F
BRANSON        CLOUDY    41  37  87 E9        29.75F
NEVADA         CLOUDY    41  39  93 SE10      29.72F FOG     WCI  35
JOPLIN         CLOUDY    43  41  93 SE10      29.71S
WEST PLAINS    CLOUDY    41  33  73 SE9       29.81F

$$

IAZ060-094-KSZ022-034>040-054-083-096-NEZ052-066-093-220900-
...KANSAS...SOUTHEAST NEBRASKA AND IOWA...

CITY           SKY/WX    TMP DP  RH WIND       PRES   REMARKS
TOPEKA         CLOUDY    45  41  86 S10       29.66F
MANHATTAN      LGT RAIN  44  42  93 S9        29.62F FOG
EMPORIA        CLOUDY    42  41  96 S10       29.63F FOG
CHANUTE        CLOUDY    44  43  96 S13       29.67F FOG
WICHITA        DRIZZLE   45  43  93 SE12      29.59F FOG
OMAHA          DRIZZLE   43  42  97 S15       29.61F FOG
LINCOLN        LGT RAIN  44  42  93 S14       29.58F
FALLS CITY     CLOUDY    43  40  89 S9        29.64F
LAMONI         CLOUDY    39  38  96 SE14      29.70F WCI  31
DES MOINES     DRIZZLE   42  38  85 S14       29.72F FOG     WCI  35

$$



USA.gov is the U.S. government's official web portal to all federal, state and local government web resources and services.